Weather History for KJFK - July, 2013

Change the Weather History Date:

Saturday, July 13, 2013

  Actual Average Record
Temperature  
Mean Temperature 78 °F 76 °F  
Max Temperature 85 °F 83 °F 94 °F (1992)
Min Temperature 71 °F 69 °F 58 °F (1990)
Degree Days  
Heating Degree Days 0 0  
Month to date heating degree days 0 0  
Since 1 June heating degree days 10 21  
Since 1 July heating degree days 0 0  
Cooling Degree Days 13 11  
Month to date cooling degree days 180 136  
Year to date cooling degree days 386 354  
Since 1 June cooling degree days 360 319  
Growing Degree Days 27 (Base 50)    
Moisture  
Dew Point 72 °F    
Average Humidity 85    
Maximum Humidity 100    
Minimum Humidity 70    
Precipitation  
Precipitation 0.00 in 0.14 in 1.95 in (1975)
Month to date precipitation 1.65 1.60  
Year to date precipitation 22.85 22.80  
Snow  
Snow 0.00 in 0.00 in - ()
Month to date snowfall 0.0 0.0  
Since 1 July snowfall 0.0 0.0  
Snow Depth 0.00 in    
Sea Level Pressure  
Sea Level Pressure 30.22 in    
Wind  
Wind Speed 8 mph (ESE)    
Max Wind Speed 15 mph    
Max Gust Speed 18 mph    
Visibility 8 miles    
Events      
T = Trace of Precipitation, MM = Missing Value Source: NWS Daily Summary

Daily Weather History Graph

Daily Weather History Graph

Search for Another Location

Airport or City:

Trip Planner

Search our weather history database for the weather conditions in past years. The results will help you decide how hot, cold, wet, or windy it might be!

Date:

Astronomy

Jul. 13, 2013 Rise Set
Actual Time 5:35 AM EDT 8:25 PM EDT
Civil Twilight 5:03 AM EDT 8:58 PM EDT
Nautical Twilight 4:22 AM EDT 9:38 PM EDT
Astronomical Twilight 3:35 AM EDT 10:25 PM EDT
Moon 10:50 AM EDT (7/13) 11:03 PM EDT (7/13)
Length of Visible Light 15h 54m
Length of Day
14h 50m
Waxing Crescent, 25% of the Moon is Illuminated
Jul 13
Waxing Crescent
Jul 15
First Quarter
Jul 22
Full
Jul 29
Last Quarter
Aug 6
New

Hourly Weather History & Observations

Time (EDT) Temp. Heat Index Dew Point Humidity Pressure Visibility Wind Dir Wind Speed Gust Speed Precip Events Conditions
12:51 AM 70.0 °F - 68.0 °F 93% 30.12 in 10.0 mi ENE 12.7 mph - N/A   Overcast
1:51 AM 71.1 °F - 69.1 °F 93% 30.12 in 10.0 mi East 11.5 mph - N/A   Overcast
2:51 AM 71.1 °F - 69.1 °F 93% 30.12 in 10.0 mi ENE 9.2 mph - N/A   Overcast
3:30 AM 71.6 °F - 69.8 °F 94% 30.12 in 1.5 mi ENE 10.4 mph - N/A   Overcast
3:51 AM 71.1 °F - 70.0 °F 96% 30.13 in 1.5 mi ENE 10.4 mph - N/A   Overcast
4:51 AM 72.0 °F - 70.0 °F 93% 30.15 in 1.0 mi ENE 6.9 mph - N/A   Overcast
5:51 AM 72.0 °F - 70.0 °F 93% 30.16 in 1.0 mi ENE 8.1 mph - N/A   Overcast
6:51 AM 72.0 °F - 71.1 °F 97% 30.18 in 6.0 mi ENE 8.1 mph - N/A   Overcast
7:51 AM 73.0 °F - 71.1 °F 93% 30.20 in 6.0 mi East 5.8 mph - N/A   Overcast
8:51 AM 75.0 °F - 72.0 °F 90% 30.22 in 6.0 mi East 5.8 mph - N/A   Overcast
9:51 AM 77.0 °F - 73.0 °F 88% 30.23 in 8.0 mi East 6.9 mph - N/A   Mostly Cloudy
10:42 AM 78.8 °F - 73.4 °F 83% 30.24 in 10.0 mi ESE 6.9 mph - N/A   Mostly Cloudy
10:51 AM 80.1 °F 84.2 °F 73.0 °F 79% 30.24 in 10.0 mi ESE 6.9 mph - N/A   Mostly Cloudy
11:14 AM 82.4 °F 88.2 °F 73.4 °F 74% 30.24 in 10.0 mi Variable 4.6 mph - N/A   Mostly Cloudy
11:51 AM 82.9 °F 88.8 °F 73.0 °F 72% 30.24 in 10.0 mi South 10.4 mph - N/A   Mostly Cloudy
12:51 PM 82.9 °F 89.4 °F 73.9 °F 74% 30.25 in 10.0 mi SE 6.9 mph - N/A   Mostly Cloudy
1:51 PM 84.0 °F 90.2 °F 73.0 °F 69% 30.24 in 10.0 mi East 8.1 mph - N/A   Mostly Cloudy
2:51 PM 82.0 °F 87.4 °F 73.0 °F 74% 30.24 in 10.0 mi ESE 10.4 mph - N/A   Mostly Cloudy
3:51 PM 82.0 °F 87.4 °F 73.0 °F 74% 30.23 in 10.0 mi SE 8.1 mph - N/A   Mostly Cloudy
4:51 PM 80.1 °F 84.5 °F 73.9 °F 81% 30.25 in 9.0 mi SE 8.1 mph - N/A   Mostly Cloudy
5:30 PM 78.8 °F - 73.4 °F 83% 30.25 in 9.0 mi SE 8.1 mph - N/A   Overcast
5:51 PM 79.0 °F - 73.9 °F 84% 30.25 in 8.0 mi ESE 9.2 mph - N/A   Overcast
6:51 PM 79.0 °F - 73.9 °F 84% 30.26 in 8.0 mi SE 9.2 mph - N/A   Overcast
7:02 PM 78.8 °F - 73.4 °F 83% 30.26 in 8.0 mi SE 8.1 mph - N/A   Overcast
7:51 PM 78.1 °F - 73.0 °F 84% 30.27 in 9.0 mi SE 5.8 mph - N/A   Mostly Cloudy
8:51 PM 77.0 °F - 73.0 °F 88% 30.27 in 9.0 mi SSE 8.1 mph - N/A   Mostly Cloudy
9:51 PM 75.9 °F - 73.0 °F 91% 30.28 in 10.0 mi South 10.4 mph - N/A   Scattered Clouds
10:51 PM 75.0 °F - 72.0 °F 90% 30.29 in 6.0 mi SSW 6.9 mph - N/A   Overcast
11:51 PM 73.9 °F - 72.0 °F 93% 30.29 in 6.0 mi SSW 3.5 mph - N/A   Mostly Cloudy